date,time,SUV Intensity [MED/Hr],UV Index,Daily total [MED],Since Last [MED]
02/09/2023,00:00:48,0.000,0.0,0.0,0.0
02/09/2023,00:01:47,0.000,0.0,0.0,0.0
02/09/2023,00:02:48,0.001,0.0,0.0,0.0
02/09/2023,00:03:47,0.000,0.0,0.0,0.0
02/09/2023,00:04:47,0.000,0.0,0.0,0.0
02/09/2023,00:05:47,-0.001,0.0,0.0,0.0
02/09/2023,00:06:48,0.000,0.0,0.0,0.0
02/09/2023,00:07:47,0.000,0.0,0.0,0.0
02/09/2023,00:08:47,0.000,0.0,0.0,0.0
02/09/2023,00:09:48,0.000,0.0,0.0,0.0
02/09/2023,00:10:47,0.000,0.0,0.0,0.0
02/09/2023,00:11:47,0.000,0.0,0.0,0.0
02/09/2023,00:12:47,0.000,0.0,0.0,0.0
02/09/2023,00:13:47,0.000,0.0,0.0,0.0
02/09/2023,00:14:48,0.000,0.0,0.0,0.0
02/09/2023,00:15:45,0.000,0.0,0.0,0.0
02/09/2023,00:16:46,0.000,0.0,0.0,0.0
02/09/2023,00:17:48,0.000,0.0,0.0,0.0
02/09/2023,00:18:48,0.000,0.0,0.0,0.0
02/09/2023,00:19:47,0.000,0.0,0.0,0.0
02/09/2023,00:20:48,0.000,0.0,0.0,0.0
02/09/2023,00:21:47,0.000,0.0,0.0,0.0
02/09/2023,00:22:47,0.000,0.0,0.0,0.0
02/09/2023,00:23:49,0.000,0.0,0.0,0.0
02/09/2023,00:24:48,0.000,0.0,0.0,0.0
02/09/2023,00:25:47,0.000,0.0,0.0,0.0
02/09/2023,00:26:48,0.001,0.0,0.0,0.0
02/09/2023,00:27:47,0.000,0.0,0.0,0.0
02/09/2023,00:28:46,0.001,0.0,0.0,0.0
02/09/2023,00:29:46,0.000,0.0,0.0,0.0
02/09/2023,00:30:47,0.000,0.0,0.0,0.0
02/09/2023,00:31:48,0.000,0.0,0.0,0.0
02/09/2023,00:32:47,0.000,0.0,0.0,0.0
02/09/2023,00:33:48,0.000,0.0,0.0,0.0
02/09/2023,00:34:47,0.000,0.0,0.0,0.0
02/09/2023,00:35:48,0.000,0.0,0.0,0.0
02/09/2023,00:36:48,0.000,0.0,0.0,0.0
02/09/2023,00:37:48,0.000,0.0,0.0,0.0
02/09/2023,00:38:46,0.000,0.0,0.0,0.0
02/09/2023,00:39:45,0.000,0.0,0.0,0.0
02/09/2023,00:40:48,0.000,0.0,0.0,0.0
02/09/2023,00:41:48,0.000,0.0,0.0,0.0
02/09/2023,00:42:48,0.000,0.0,0.0,0.0
02/09/2023,00:43:48,0.000,0.0,0.0,0.0
02/09/2023,00:44:47,0.000,0.0,0.0,0.0
02/09/2023,00:45:47,0.000,0.0,0.0,0.0
02/09/2023,00:46:47,0.002,0.0,0.0,0.0
02/09/2023,00:47:48,0.000,0.0,0.0,0.0
02/09/2023,00:48:48,0.000,0.0,0.0,0.0
02/09/2023,00:49:47,0.000,0.0,0.0,0.0
02/09/2023,00:50:49,0.000,0.0,0.0,0.0
02/09/2023,00:51:47,0.000,0.0,0.0,0.0
02/09/2023,00:52:47,0.000,0.0,0.0,0.0
02/09/2023,00:53:48,0.000,0.0,0.0,0.0
02/09/2023,00:54:47,0.000,0.0,0.0,0.0
02/09/2023,00:55:47,0.000,0.0,0.0,0.0
02/09/2023,00:56:48,0.000,0.0,0.0,0.0
02/09/2023,00:57:48,0.000,0.0,0.0,0.0
02/09/2023,00:58:48,0.000,0.0,0.0,0.0
02/09/2023,00:59:48,0.000,0.0,0.0,0.0
02/09/2023,01:00:47,0.000,0.0,0.0,0.0
02/09/2023,01:01:47,0.000,0.0,0.0,0.0
02/09/2023,01:02:48,0.000,0.0,0.0,0.0
02/09/2023,01:03:47,0.000,0.0,0.0,0.0
02/09/2023,01:04:47,0.000,0.0,0.0,0.0
02/09/2023,01:05:48,0.000,0.0,0.0,0.0
02/09/2023,01:06:48,0.000,0.0,0.0,0.0
02/09/2023,01:07:48,0.001,0.0,0.0,0.0
02/09/2023,01:08:47,0.001,0.0,0.0,0.0
02/09/2023,01:09:47,0.000,0.0,0.0,0.0
02/09/2023,01:10:48,0.000,0.0,0.0,0.0
02/09/2023,01:11:48,0.000,0.0,0.0,0.0
02/09/2023,01:12:48,0.001,0.0,0.0,0.0
02/09/2023,01:13:48,0.001,0.0,0.0,0.0
02/09/2023,01:14:47,0.001,0.0,0.0,0.0
02/09/2023,01:15:47,0.000,0.0,0.0,0.0
02/09/2023,01:16:47,0.002,0.0,0.0,0.0
02/09/2023,01:17:48,0.000,0.0,0.0,0.0
02/09/2023,01:18:48,0.000,0.0,0.0,0.0
02/09/2023,01:19:47,0.000,0.0,0.0,0.0
02/09/2023,01:20:47,0.000,0.0,0.0,0.0
02/09/2023,01:21:48,0.000,0.0,0.0,0.0
02/09/2023,01:22:48,0.001,0.0,0.0,0.0
02/09/2023,01:23:48,0.001,0.0,0.0,0.0
02/09/2023,01:24:47,0.000,0.0,0.0,0.0
02/09/2023,01:25:47,0.000,0.0,0.0,0.0
02/09/2023,01:26:47,0.000,0.0,0.0,0.0
02/09/2023,01:27:48,0.001,0.0,0.0,0.0
02/09/2023,01:28:47,0.000,0.0,0.0,0.0
02/09/2023,01:29:48,0.000,0.0,0.0,0.0
02/09/2023,01:30:47,0.000,0.0,0.0,0.0
02/09/2023,01:31:47,0.000,0.0,0.0,0.0
02/09/2023,01:32:47,0.000,0.0,0.0,0.0
02/09/2023,01:33:48,0.000,0.0,0.0,0.0
02/09/2023,01:34:48,0.001,0.0,0.0,0.0
02/09/2023,01:35:47,-0.000,0.0,0.0,0.0
02/09/2023,01:36:47,0.001,0.0,0.0,0.0
02/09/2023,01:37:48,0.000,0.0,0.0,0.0
02/09/2023,01:38:48,0.001,0.0,0.0,0.0
02/09/2023,01:39:47,0.000,0.0,0.0,0.0
02/09/2023,01:40:48,0.000,0.0,0.0,0.0
02/09/2023,01:41:48,0.000,0.0,0.0,0.0
02/09/2023,01:42:48,0.000,0.0,0.0,0.0
02/09/2023,01:43:46,0.000,0.0,0.0,0.0
02/09/2023,01:44:46,0.000,0.0,0.0,0.0
02/09/2023,01:45:48,0.000,0.0,0.0,0.0
02/09/2023,01:46:46,0.000,0.0,0.0,0.0
02/09/2023,01:47:45,0.000,0.0,0.0,0.0
02/09/2023,01:48:48,0.000,0.0,0.0,0.0
02/09/2023,01:49:48,0.000,0.0,0.0,0.0
02/09/2023,01:50:47,-0.001,0.0,0.0,0.0
02/09/2023,01:51:46,0.000,0.0,0.0,0.0
02/09/2023,01:52:46,0.000,0.0,0.0,0.0
02/09/2023,01:53:48,0.000,0.0,0.0,0.0
02/09/2023,01:54:47,0.000,0.0,0.0,0.0
02/09/2023,01:55:45,0.001,0.0,0.0,0.0
02/09/2023,01:56:46,0.000,0.0,0.0,0.0
02/09/2023,01:57:48,0.000,0.0,0.0,0.0
02/09/2023,01:58:47,0.000,0.0,0.0,0.0
02/09/2023,01:59:47,0.000,0.0,0.0,0.0
02/09/2023,02:00:48,0.001,0.0,0.0,0.0
02/09/2023,02:01:47,0.000,0.0,0.0,0.0
02/09/2023,02:02:47,0.000,0.0,0.0,0.0
02/09/2023,02:03:47,0.001,0.0,0.0,0.0
02/09/2023,02:04:48,0.000,0.0,0.0,0.0
02/09/2023,02:05:48,0.001,0.0,0.0,0.0
02/09/2023,02:06:47,0.001,0.0,0.0,0.0
02/09/2023,02:07:47,0.000,0.0,0.0,0.0
02/09/2023,02:08:47,0.000,0.0,0.0,0.0
02/09/2023,02:09:48,0.001,0.0,0.0,0.0
02/09/2023,02:10:48,0.001,0.0,0.0,0.0
02/09/2023,02:11:48,0.000,0.0,0.0,0.0
02/09/2023,02:12:48,0.000,0.0,0.0,0.0
02/09/2023,02:13:48,0.001,0.0,0.0,0.0
02/09/2023,02:14:48,0.001,0.0,0.0,0.0
02/09/2023,02:15:48,0.000,0.0,0.0,0.0
02/09/2023,02:16:47,0.001,0.0,0.0,0.0
02/09/2023,02:17:47,0.000,0.0,0.0,0.0
02/09/2023,02:18:48,0.000,0.0,0.0,0.0
02/09/2023,02:19:48,0.001,0.0,0.0,0.0
02/09/2023,02:20:47,0.000,0.0,0.0,0.0
02/09/2023,02:21:47,0.000,0.0,0.0,0.0
02/09/2023,02:22:48,0.001,0.0,0.0,0.0
02/09/2023,02:23:47,0.001,0.0,0.0,0.0
02/09/2023,02:24:48,0.002,0.0,0.0,0.0
02/09/2023,02:25:47,0.001,0.0,0.0,0.0
02/09/2023,02:26:48,0.001,0.0,0.0,0.0
02/09/2023,02:27:47,0.000,0.0,0.0,0.0
02/09/2023,02:28:47,0.001,0.0,0.0,0.0
02/09/2023,02:29:47,0.001,0.0,0.0,0.0
02/09/2023,02:30:48,0.000,0.0,0.0,0.0
02/09/2023,02:31:48,0.001,0.0,0.0,0.0
02/09/2023,02:32:47,0.001,0.0,0.0,0.0
02/09/2023,02:33:48,0.001,0.0,0.0,0.0
02/09/2023,02:34:47,0.001,0.0,0.0,0.0
02/09/2023,02:35:48,0.001,0.0,0.0,0.0
02/09/2023,02:36:48,0.000,0.0,0.0,0.0
02/09/2023,02:37:47,0.002,0.0,0.0,0.0
02/09/2023,02:38:48,0.001,0.0,0.0,0.0
02/09/2023,02:39:48,0.002,0.0,0.0,0.0
02/09/2023,02:40:48,0.001,0.0,0.0,0.0
02/09/2023,02:41:48,0.001,0.0,0.0,0.0
02/09/2023,02:42:47,0.002,0.0,0.0,0.0
02/09/2023,02:43:48,0.001,0.0,0.0,0.0
02/09/2023,02:44:46,0.001,0.0,0.0,0.0
02/09/2023,02:45:46,0.000,0.0,0.0,0.0
02/09/2023,02:46:48,0.001,0.0,0.0,0.0
02/09/2023,02:47:48,0.000,0.0,0.0,0.0
02/09/2023,02:48:48,0.001,0.0,0.0,0.0
02/09/2023,02:49:47,0.001,0.0,0.0,0.0
02/09/2023,02:50:48,0.001,0.0,0.0,0.0
02/09/2023,02:51:48,0.002,0.0,0.0,0.0
02/09/2023,02:52:47,0.001,0.0,0.0,0.0
02/09/2023,02:53:47,0.001,0.0,0.0,0.0
02/09/2023,02:54:47,0.001,0.0,0.0,0.0
02/09/2023,02:55:48,0.001,0.0,0.0,0.0
02/09/2023,02:56:48,0.000,0.0,0.0,0.0
02/09/2023,02:57:48,0.000,0.0,0.0,0.0
02/09/2023,02:58:48,0.001,0.0,0.0,0.0
02/09/2023,02:59:48,0.002,0.0,0.0,0.0
02/09/2023,03:00:48,0.000,0.0,0.0,0.0
02/09/2023,03:01:47,0.001,0.0,0.0,0.0
02/09/2023,03:02:48,0.001,0.0,0.0,0.0
02/09/2023,03:03:47,0.001,0.0,0.0,0.0
02/09/2023,03:04:48,0.001,0.0,0.0,0.0
02/09/2023,03:05:47,0.001,0.0,0.0,0.0
02/09/2023,03:06:48,0.001,0.0,0.0,0.0
02/09/2023,03:07:48,0.000,0.0,0.0,0.0
02/09/2023,03:08:47,0.001,0.0,0.0,0.0
02/09/2023,03:09:48,0.000,0.0,0.0,0.0
02/09/2023,03:10:47,0.000,0.0,0.0,0.0
02/09/2023,03:11:48,0.000,0.0,0.0,0.0
02/09/2023,03:12:48,0.000,0.0,0.0,0.0
02/09/2023,03:13:47,0.000,0.0,0.0,0.0
02/09/2023,03:14:47,0.000,0.0,0.0,0.0
02/09/2023,03:15:48,0.000,0.0,0.0,0.0
02/09/2023,03:16:48,0.000,0.0,0.0,0.0
02/09/2023,03:17:48,0.000,0.0,0.0,0.0
02/09/2023,03:18:48,0.000,0.0,0.0,0.0
02/09/2023,03:19:46,0.000,0.0,0.0,0.0
02/09/2023,03:20:46,0.001,0.0,0.0,0.0
02/09/2023,03:21:48,0.000,0.0,0.0,0.0
02/09/2023,03:22:48,0.000,0.0,0.0,0.0
02/09/2023,03:23:48,0.000,0.0,0.0,0.0
02/09/2023,03:24:48,0.000,0.0,0.0,0.0
02/09/2023,03:25:47,0.000,0.0,0.0,0.0
02/09/2023,03:26:48,0.000,0.0,0.0,0.0
02/09/2023,03:27:48,0.000,0.0,0.0,0.0
02/09/2023,03:28:48,0.000,0.0,0.0,0.0
02/09/2023,03:29:48,0.000,0.0,0.0,0.0
02/09/2023,03:30:48,0.000,0.0,0.0,0.0
02/09/2023,03:31:48,0.000,0.0,0.0,0.0
02/09/2023,03:32:47,0.000,0.0,0.0,0.0
02/09/2023,03:33:48,0.000,0.0,0.0,0.0
02/09/2023,03:34:46,0.000,0.0,0.0,0.0
02/09/2023,03:35:46,0.000,0.0,0.0,0.0
02/09/2023,03:36:48,0.000,0.0,0.0,0.0
02/09/2023,03:37:47,0.000,0.0,0.0,0.0
02/09/2023,03:38:48,0.000,0.0,0.0,0.0
02/09/2023,03:39:48,0.000,0.0,0.0,0.0
02/09/2023,03:40:48,0.001,0.0,0.0,0.0
02/09/2023,03:41:48,0.000,0.0,0.0,0.0
02/09/2023,03:42:48,0.000,0.0,0.0,0.0
02/09/2023,03:43:48,0.000,0.0,0.0,0.0
02/09/2023,03:44:48,0.000,0.0,0.0,0.0
02/09/2023,03:45:47,0.000,0.0,0.0,0.0
02/09/2023,03:46:48,0.000,0.0,0.0,0.0
02/09/2023,03:47:48,-0.001,0.0,0.0,0.0
02/09/2023,03:48:48,0.000,0.0,0.0,0.0
02/09/2023,03:49:47,0.000,0.0,0.0,0.0
02/09/2023,03:50:48,0.000,0.0,0.0,0.0
02/09/2023,03:51:48,0.000,0.0,0.0,0.0
02/09/2023,03:52:47,0.000,0.0,0.0,0.0
02/09/2023,03:53:47,0.001,0.0,0.0,0.0
02/09/2023,03:54:48,-0.001,0.0,0.0,0.0
02/09/2023,03:55:48,0.000,0.0,0.0,0.0
02/09/2023,03:56:47,0.000,0.0,0.0,0.0
02/09/2023,03:57:47,0.000,0.0,0.0,0.0
02/09/2023,03:58:48,0.000,0.0,0.0,0.0
02/09/2023,03:59:48,0.000,0.0,0.0,0.0
02/09/2023,04:00:48,0.000,0.0,0.0,0.0
02/09/2023,04:01:48,0.000,0.0,0.0,0.0
02/09/2023,04:02:47,0.000,0.0,0.0,0.0
02/09/2023,04:03:48,0.000,0.0,0.0,0.0
02/09/2023,04:04:48,0.000,0.0,0.0,0.0
02/09/2023,04:05:48,0.000,0.0,0.0,0.0
02/09/2023,04:06:47,0.000,0.0,0.0,0.0
02/09/2023,04:07:48,0.000,0.0,0.0,0.0
02/09/2023,04:08:48,0.000,0.0,0.0,0.0
02/09/2023,04:09:48,0.000,0.0,0.0,0.0
02/09/2023,04:10:48,0.000,0.0,0.0,0.0
02/09/2023,04:11:48,0.000,0.0,0.0,0.0
02/09/2023,04:12:48,0.000,0.0,0.0,0.0
02/09/2023,04:13:46,0.000,0.0,0.0,0.0
02/09/2023,04:14:46,0.000,0.0,0.0,0.0
02/09/2023,04:15:48,-0.000,0.0,0.0,0.0
02/09/2023,04:16:46,-0.000,0.0,0.0,0.0
02/09/2023,04:17:46,-0.000,0.0,0.0,0.0
02/09/2023,04:18:48,0.000,0.0,0.0,0.0
02/09/2023,04:19:48,0.000,0.0,0.0,0.0
02/09/2023,04:20:48,-0.000,0.0,0.0,0.0
02/09/2023,04:21:47,-0.001,0.0,0.0,0.0
02/09/2023,04:22:48,0.000,0.0,0.0,0.0
02/09/2023,04:23:47,0.000,0.0,0.0,0.0
02/09/2023,04:24:48,-0.000,0.0,0.0,0.0
02/09/2023,04:25:45,0.000,0.0,0.0,0.0
02/09/2023,04:26:46,-0.000,0.0,0.0,0.0
02/09/2023,04:27:48,-0.000,0.0,0.0,0.0
02/09/2023,04:28:48,-0.000,0.0,0.0,0.0
02/09/2023,04:29:48,-0.000,0.0,0.0,0.0
02/09/2023,04:30:48,0.001,0.0,0.0,0.0
02/09/2023,04:31:48,0.000,0.0,0.0,0.0
02/09/2023,04:32:48,-0.000,0.0,0.0,0.0
02/09/2023,04:33:48,-0.000,0.0,0.0,0.0
02/09/2023,04:34:48,-0.000,0.0,0.0,0.0
02/09/2023,04:35:48,-0.000,0.0,0.0,0.0
02/09/2023,04:36:48,-0.000,0.0,0.0,0.0
02/09/2023,04:37:48,-0.000,0.0,0.0,0.0
02/09/2023,04:38:47,-0.000,0.0,0.0,0.0
02/09/2023,04:39:48,0.000,0.0,0.0,0.0
02/09/2023,04:40:48,-0.000,0.0,0.0,0.0
02/09/2023,04:41:47,-0.000,0.0,0.0,0.0
02/09/2023,04:42:48,0.000,0.0,0.0,0.0
02/09/2023,04:43:48,-0.000,0.0,0.0,0.0
02/09/2023,04:44:48,-0.000,0.0,0.0,0.0
02/09/2023,04:45:48,-0.000,0.0,0.0,0.0
02/09/2023,04:46:48,-0.000,0.0,0.0,0.0
02/09/2023,04:47:48,-0.000,0.0,0.0,0.0
02/09/2023,04:48:48,0.000,0.0,0.0,0.0
02/09/2023,04:49:46,0.000,0.0,0.0,0.0
02/09/2023,04:50:46,-0.001,0.0,0.0,0.0
02/09/2023,04:51:48,0.000,0.0,0.0,0.0
02/09/2023,04:52:48,-0.000,0.0,0.0,0.0
02/09/2023,04:53:48,0.000,0.0,0.0,0.0
02/09/2023,04:54:48,-0.000,0.0,0.0,0.0
02/09/2023,04:55:47,0.000,0.0,0.0,0.0
02/09/2023,04:56:48,-0.000,0.0,0.0,0.0
02/09/2023,04:57:48,-0.000,0.0,0.0,0.0
02/09/2023,04:58:49,-0.001,0.0,0.0,0.0
02/09/2023,04:59:48,-0.000,0.0,0.0,0.0
02/09/2023,05:00:48,-0.000,0.0,0.0,0.0
02/09/2023,05:01:48,0.000,0.0,0.0,0.0
02/09/2023,05:02:48,0.000,0.0,0.0,0.0
02/09/2023,05:03:48,-0.001,0.0,0.0,0.0
02/09/2023,05:04:48,0.001,0.0,0.0,0.0
02/09/2023,05:05:47,0.000,0.0,0.0,0.0
02/09/2023,05:06:48,0.001,0.0,0.0,0.0
02/09/2023,05:07:48,0.000,0.0,0.0,0.0
02/09/2023,05:08:48,0.000,0.0,0.0,0.0
02/09/2023,05:09:48,0.000,0.0,0.0,0.0
02/09/2023,05:10:48,0.000,0.0,0.0,0.0
02/09/2023,05:11:48,0.000,0.0,0.0,0.0
02/09/2023,05:12:47,0.001,0.0,0.0,0.0
02/09/2023,05:13:46,0.000,0.0,0.0,0.0
02/09/2023,05:14:46,0.000,0.0,0.0,0.0
02/09/2023,05:15:48,0.001,0.0,0.0,0.0
02/09/2023,05:16:48,0.000,0.0,0.0,0.0
02/09/2023,05:17:48,0.000,0.0,0.0,0.0
02/09/2023,05:18:48,0.000,0.0,0.0,0.0
02/09/2023,05:19:48,0.000,0.0,0.0,0.0
02/09/2023,05:20:48,0.000,0.0,0.0,0.0
02/09/2023,05:21:48,0.001,0.0,0.0,0.0
02/09/2023,05:22:48,0.000,0.0,0.0,0.0
02/09/2023,05:23:48,0.001,0.0,0.0,0.0
02/09/2023,05:24:48,0.001,0.0,0.0,0.0
02/09/2023,05:25:48,0.001,0.0,0.0,0.0
02/09/2023,05:26:48,0.000,0.0,0.0,0.0
02/09/2023,05:27:48,0.001,0.0,0.0,0.0
02/09/2023,05:28:48,0.001,0.0,0.0,0.0
02/09/2023,05:29:48,0.001,0.0,0.0,0.0
02/09/2023,05:30:48,0.001,0.0,0.0,0.0
02/09/2023,05:31:48,0.002,0.0,0.0,0.0
02/09/2023,05:32:48,0.002,0.0,0.0,0.0
02/09/2023,05:33:48,0.001,0.0,0.0,0.0
02/09/2023,05:34:48,0.002,0.0,0.0,0.0
02/09/2023,05:35:48,0.002,0.0,0.0,0.0
02/09/2023,05:36:48,0.001,0.0,0.0,0.0
02/09/2023,05:37:48,0.003,0.0,0.0,0.0
02/09/2023,05:38:48,0.002,0.0,0.0,0.0
02/09/2023,05:39:48,0.002,0.0,0.0,0.0
02/09/2023,05:40:48,0.003,0.0,0.0,0.0
02/09/2023,05:41:46,0.003,0.0,0.0,0.0
02/09/2023,05:42:46,0.002,0.0,0.0,0.0
02/09/2023,05:43:48,0.002,0.0,0.0,0.0
02/09/2023,05:44:48,0.003,0.0,0.0,0.0
02/09/2023,05:45:48,0.004,0.0,0.0,0.0
02/09/2023,05:46:48,0.003,0.0,0.0,0.0
02/09/2023,05:47:48,0.004,0.0,0.0,0.0
02/09/2023,05:48:48,0.004,0.0,0.0,0.0
02/09/2023,05:49:48,0.005,0.0,0.0,0.0
02/09/2023,05:50:48,0.005,0.0,0.0,0.0
02/09/2023,05:51:48,0.004,0.0,0.0,0.0
02/09/2023,05:52:48,0.004,0.0,0.0,0.0
02/09/2023,05:53:48,0.005,0.0,0.0,0.0
02/09/2023,05:54:48,0.006,0.0,0.0,0.0
02/09/2023,05:55:48,0.007,0.0,0.0,0.0
02/09/2023,05:56:48,0.006,0.0,0.0,0.0
02/09/2023,05:57:48,0.006,0.0,0.0,0.0
02/09/2023,05:58:46,0.007,0.0,0.0,0.0
02/09/2023,05:59:46,0.008,0.0,0.0,0.0
02/09/2023,06:00:48,0.008,0.0,0.001,0.001
02/09/2023,06:01:48,0.007,0.0,0.001,0.0
02/09/2023,06:02:48,0.007,0.0,0.001,0.0
02/09/2023,06:03:46,0.007,0.0,0.001,0.0
02/09/2023,06:04:46,0.008,0.0,0.001,0.0
02/09/2023,06:05:48,0.009,0.0,0.001,0.0
02/09/2023,06:06:48,0.011,0.0,0.001,0.0
02/09/2023,06:07:49,0.015,0.0,0.002,0.001
02/09/2023,06:08:48,0.016,0.0,0.002,0.0
02/09/2023,06:09:48,0.016,0.0,0.002,0.0
02/09/2023,06:10:48,0.016,0.0,0.002,0.0
02/09/2023,06:11:48,0.014,0.0,0.003,0.001
02/09/2023,06:12:48,0.014,0.0,0.003,0.0
02/09/2023,06:13:48,0.015,0.0,0.003,0.0
02/09/2023,06:14:48,0.017,0.0,0.003,0.0
02/09/2023,06:15:48,0.016,0.0,0.004,0.001
02/09/2023,06:16:48,0.014,0.0,0.004,0.0
02/09/2023,06:17:48,0.016,0.0,0.004,0.0
02/09/2023,06:18:48,0.015,0.0,0.004,0.0
02/09/2023,06:19:48,0.015,0.0,0.005,0.001
02/09/2023,06:20:49,0.016,0.0,0.005,0.0
02/09/2023,06:21:48,0.016,0.0,0.005,0.0
02/09/2023,06:22:48,0.016,0.0,0.005,0.0
02/09/2023,06:23:48,0.017,0.0,0.006,0.001
02/09/2023,06:24:48,0.016,0.0,0.006,0.0
02/09/2023,06:25:48,0.017,0.0,0.006,0.0
02/09/2023,06:26:48,0.017,0.0,0.006,0.0
02/09/2023,06:27:48,0.017,0.0,0.007,0.001
02/09/2023,06:28:48,0.018,0.0,0.007,0.0
02/09/2023,06:29:48,0.020,0.0,0.007,0.0
02/09/2023,06:30:49,0.020,0.0,0.008,0.001
02/09/2023,06:31:48,0.020,0.0,0.008,0.0
02/09/2023,06:32:48,0.021,0.0,0.008,0.0
02/09/2023,06:33:48,0.024,0.0,0.009,0.001
02/09/2023,06:34:48,0.023,0.0,0.009,0.0
02/09/2023,06:35:48,0.025,0.0,0.009,0.0
02/09/2023,06:36:48,0.026,0.0,0.01,0.001
02/09/2023,06:37:49,0.027,0.0,0.01,0.0
02/09/2023,06:38:48,0.027,0.0,0.011,0.001
02/09/2023,06:39:48,0.027,0.0,0.011,0.0
02/09/2023,06:40:48,0.027,0.0,0.012,0.001
02/09/2023,06:41:48,0.027,0.0,0.012,0.0
02/09/2023,06:42:46,0.026,0.0,0.013,0.001
02/09/2023,06:43:46,0.027,0.0,0.013,0.0
02/09/2023,06:44:48,0.026,0.0,0.014,0.001
02/09/2023,06:45:48,0.028,0.0,0.014,0.0
02/09/2023,06:46:48,0.028,0.0,0.014,0.0
02/09/2023,06:47:48,0.030,0.0,0.015,0.001
02/09/2023,06:48:48,0.032,0.0,0.015,0.0
02/09/2023,06:49:48,0.032,0.0,0.016,0.001
02/09/2023,06:50:48,0.033,0.0,0.017,0.001
02/09/2023,06:51:48,0.034,0.0,0.017,0.0
02/09/2023,06:52:48,0.034,0.0,0.018,0.001
02/09/2023,06:53:48,0.035,0.0,0.018,0.0
02/09/2023,06:54:48,0.037,0.0,0.019,0.001
02/09/2023,06:55:48,0.038,0.0,0.019,0.0
02/09/2023,06:56:48,0.040,0.0,0.02,0.001
02/09/2023,06:57:49,0.042,0.0,0.021,0.001
02/09/2023,06:58:48,0.042,0.0,0.021,0.0
02/09/2023,06:59:48,0.041,0.0,0.022,0.001
02/09/2023,07:00:48,0.041,0.0,0.023,0.001
02/09/2023,07:01:49,0.040,0.0,0.023,0.0
02/09/2023,07:02:48,0.039,0.0,0.024,0.001
02/09/2023,07:03:48,0.042,0.0,0.025,0.001
02/09/2023,07:04:48,0.046,0.0,0.026,0.001
02/09/2023,07:05:48,0.050,0.0,0.026,0.0
02/09/2023,07:06:48,0.054,0.0,0.027,0.001
02/09/2023,07:07:48,0.056,0.0,0.028,0.001
02/09/2023,07:08:48,0.058,0.0,0.029,0.001
02/09/2023,07:09:48,0.058,0.0,0.03,0.001
02/09/2023,07:10:48,0.058,0.0,0.031,0.001
02/09/2023,07:11:48,0.059,0.0,0.032,0.001
02/09/2023,07:12:48,0.061,0.0,0.033,0.001
02/09/2023,07:13:48,0.062,0.0,0.034,0.001
02/09/2023,07:14:48,0.065,0.0,0.035,0.001
02/09/2023,07:15:48,0.067,0.0,0.036,0.001
02/09/2023,07:16:48,0.071,0.0,0.037,0.001
02/09/2023,07:17:48,0.072,0.0,0.039,0.002
02/09/2023,07:18:48,0.076,0.0,0.04,0.001
02/09/2023,07:19:48,0.078,0.0,0.041,0.001
02/09/2023,07:20:48,0.081,0.0,0.042,0.001
02/09/2023,07:21:48,0.084,0.0,0.044,0.002
02/09/2023,07:22:48,0.089,0.0,0.045,0.001
02/09/2023,07:23:48,0.090,0.0,0.047,0.002
02/09/2023,07:24:48,0.091,0.0,0.048,0.001
02/09/2023,07:25:48,0.090,0.0,0.05,0.002
02/09/2023,07:26:49,0.088,0.0,0.051,0.001
02/09/2023,07:27:48,0.085,0.0,0.053,0.002
02/09/2023,07:28:48,0.081,0.0,0.054,0.001
02/09/2023,07:29:48,0.080,0.0,0.055,0.001
02/09/2023,07:30:48,0.079,0.0,0.057,0.002
02/09/2023,07:31:48,0.079,0.0,0.058,0.001
02/09/2023,07:32:48,0.079,0.0,0.059,0.001
02/09/2023,07:33:48,0.077,0.0,0.061,0.002
02/09/2023,07:34:48,0.076,0.0,0.062,0.001
02/09/2023,07:35:49,0.075,0.0,0.063,0.001
02/09/2023,07:36:48,0.075,0.0,0.064,0.001
02/09/2023,07:37:48,0.075,0.0,0.066,0.002
02/09/2023,07:38:48,0.076,0.0,0.067,0.001
02/09/2023,07:39:48,0.079,0.0,0.068,0.001
02/09/2023,07:40:48,0.084,0.0,0.07,0.002
02/09/2023,07:41:49,0.090,0.0,0.071,0.001
02/09/2023,07:42:49,0.097,0.0,0.073,0.002
02/09/2023,07:43:48,0.105,0.0,0.074,0.001
02/09/2023,07:44:48,0.109,0.0,0.076,0.002
02/09/2023,07:45:48,0.115,0.0,0.078,0.002
02/09/2023,07:46:48,0.114,0.0,0.08,0.002
02/09/2023,07:47:48,0.112,0.0,0.082,0.002
02/09/2023,07:48:49,0.111,0.0,0.084,0.002
02/09/2023,07:49:48,0.106,0.0,0.085,0.001
02/09/2023,07:50:48,0.102,0.0,0.087,0.002
02/09/2023,07:51:49,0.100,0.0,0.089,0.002
02/09/2023,07:52:49,0.101,0.0,0.09,0.001
02/09/2023,07:53:48,0.107,0.0,0.092,0.002
02/09/2023,07:54:48,0.114,0.0,0.094,0.002
02/09/2023,07:55:48,0.116,0.0,0.096,0.002
02/09/2023,07:56:48,0.112,0.0,0.098,0.002
02/09/2023,07:57:48,0.108,0.0,0.1,0.002
02/09/2023,07:58:49,0.107,0.0,0.102,0.002
02/09/2023,07:59:48,0.107,0.0,0.103,0.001
02/09/2023,08:00:49,0.116,0.0,0.105,0.002
02/09/2023,08:01:48,0.123,0.0,0.107,0.002
02/09/2023,08:02:48,0.118,0.0,0.109,0.002
02/09/2023,08:03:48,0.113,0.0,0.111,0.002
02/09/2023,08:04:49,0.113,0.0,0.113,0.002
02/09/2023,08:05:48,0.113,0.0,0.115,0.002
02/09/2023,08:06:48,0.112,0.0,0.117,0.002
02/09/2023,08:07:48,0.127,0.0,0.119,0.002
02/09/2023,08:08:48,0.132,0.0,0.121,0.002
02/09/2023,08:09:48,0.119,0.0,0.123,0.002
02/09/2023,08:10:48,0.127,0.0,0.125,0.002
02/09/2023,08:11:48,0.149,0.0,0.127,0.002
02/09/2023,08:12:46,0.155,0.0,0.13,0.003
02/09/2023,08:13:47,0.152,0.0,0.132,0.002
02/09/2023,08:14:49,0.156,0.0,0.135,0.003
02/09/2023,08:15:48,0.171,0.0,0.138,0.003
02/09/2023,08:16:48,0.178,0.0,0.141,0.003
02/09/2023,08:17:49,0.183,0.0,0.144,0.003
02/09/2023,08:18:48,0.200,0.0,0.147,0.003
02/09/2023,08:19:48,0.196,0.0,0.15,0.003
02/09/2023,08:20:49,0.191,0.0,0.153,0.003
02/09/2023,08:21:48,0.162,0.0,0.156,0.003
02/09/2023,08:22:48,0.186,0.0,0.159,0.003
02/09/2023,08:23:48,0.219,1.0,0.163,0.004
02/09/2023,08:24:48,0.237,1.0,0.166,0.003
02/09/2023,08:25:49,0.256,1.0,0.171,0.005
02/09/2023,08:26:49,0.240,1.0,0.175,0.004
02/09/2023,08:27:49,0.251,1.0,0.179,0.004
02/09/2023,08:28:48,0.271,1.0,0.183,0.004
02/09/2023,08:29:48,0.301,1.0,0.188,0.005
02/09/2023,08:30:48,0.328,1.0,0.193,0.005
02/09/2023,08:31:48,0.339,1.0,0.199,0.006
02/09/2023,08:32:49,0.341,1.0,0.204,0.005
02/09/2023,08:33:48,0.340,1.0,0.21,0.006
02/09/2023,08:34:48,0.332,1.0,0.216,0.006
02/09/2023,08:35:48,0.361,1.0,0.221,0.005
02/09/2023,08:36:49,0.374,1.0,0.228,0.007
02/09/2023,08:37:49,0.387,1.0,0.234,0.006
02/09/2023,08:38:48,0.398,1.0,0.24,0.006
02/09/2023,08:39:48,0.403,1.0,0.247,0.007
02/09/2023,08:40:48,0.403,1.0,0.254,0.007
02/09/2023,08:41:46,0.401,1.0,0.26,0.006
02/09/2023,08:42:46,0.411,1.0,0.267,0.007
02/09/2023,08:43:48,0.417,1.0,0.274,0.007
02/09/2023,08:44:48,0.414,1.0,0.281,0.007
02/09/2023,08:45:49,0.410,1.0,0.288,0.007
02/09/2023,08:46:48,0.417,1.0,0.295,0.007
02/09/2023,08:47:48,0.429,1.0,0.302,0.007
02/09/2023,08:48:48,0.432,1.0,0.309,0.007
02/09/2023,08:49:49,0.429,1.0,0.316,0.007
02/09/2023,08:50:48,0.424,1.0,0.323,0.007
02/09/2023,08:51:49,0.419,1.0,0.33,0.007
02/09/2023,08:52:49,0.412,1.0,0.338,0.008
02/09/2023,08:53:49,0.411,1.0,0.344,0.006
02/09/2023,08:54:48,0.417,1.0,0.351,0.007
02/09/2023,08:55:49,0.426,1.0,0.358,0.007
02/09/2023,08:56:48,0.429,1.0,0.365,0.007
02/09/2023,08:57:52,0.431,1.0,0.373,0.008
02/09/2023,08:58:49,0.435,1.0,0.38,0.007
02/09/2023,08:59:48,0.448,1.0,0.387,0.007
02/09/2023,09:00:49,0.454,1.0,0.394,0.007
02/09/2023,09:01:48,0.463,1.0,0.402,0.008
02/09/2023,09:02:48,0.487,1.0,0.41,0.008
02/09/2023,09:03:49,0.572,1.0,0.419,0.009
02/09/2023,09:04:48,0.604,1.0,0.429,0.01
02/09/2023,09:05:49,0.748,2.0,0.44,0.011
02/09/2023,09:06:48,0.630,1.0,0.451,0.011
02/09/2023,09:07:48,0.678,2.0,0.462,0.011
02/09/2023,09:08:48,0.747,2.0,0.474,0.012
02/09/2023,09:09:48,0.781,2.0,0.487,0.013
02/09/2023,09:10:48,0.802,2.0,0.499,0.012
02/09/2023,09:11:49,0.763,2.0,0.513,0.014
02/09/2023,09:12:49,0.611,1.0,0.525,0.012
02/09/2023,09:13:48,0.624,1.0,0.536,0.011
02/09/2023,09:14:48,0.691,2.0,0.546,0.01
02/09/2023,09:15:48,0.838,2.0,0.56,0.014
02/09/2023,09:16:48,0.844,2.0,0.574,0.014
02/09/2023,09:17:48,0.846,2.0,0.587,0.013
02/09/2023,09:18:49,0.843,2.0,0.601,0.014
02/09/2023,09:19:48,0.754,2.0,0.615,0.014
02/09/2023,09:20:48,0.853,2.0,0.629,0.014
02/09/2023,09:21:49,0.870,2.0,0.643,0.014
02/09/2023,09:22:48,0.883,2.0,0.658,0.015
02/09/2023,09:23:49,0.717,2.0,0.672,0.014
02/09/2023,09:24:48,0.893,2.0,0.686,0.014
02/09/2023,09:25:48,0.907,2.0,0.701,0.015
02/09/2023,09:26:48,0.928,2.0,0.716,0.015
02/09/2023,09:27:49,0.811,2.0,0.73,0.014
02/09/2023,09:28:50,0.876,2.0,0.745,0.015
02/09/2023,09:29:48,0.866,2.0,0.76,0.015
02/09/2023,09:30:48,0.936,2.0,0.775,0.015
02/09/2023,09:31:48,0.935,2.0,0.791,0.016
02/09/2023,09:32:48,0.945,2.0,0.806,0.015
02/09/2023,09:33:48,0.951,2.0,0.822,0.016
02/09/2023,09:34:48,0.906,2.0,0.837,0.015
02/09/2023,09:35:49,0.673,2.0,0.85,0.013
02/09/2023,09:36:48,0.917,2.0,0.862,0.012
02/09/2023,09:37:49,0.630,1.0,0.873,0.011
02/09/2023,09:38:48,0.641,1.0,0.883,0.01
02/09/2023,09:39:48,0.842,2.0,0.895,0.012
02/09/2023,09:40:48,0.706,2.0,0.909,0.014
02/09/2023,09:41:48,0.748,2.0,0.922,0.013
02/09/2023,09:42:49,0.740,2.0,0.934,0.012
02/09/2023,09:43:49,0.812,2.0,0.948,0.014
02/09/2023,09:44:48,0.742,2.0,0.962,0.014
02/09/2023,09:45:48,0.937,2.0,0.975,0.013
02/09/2023,09:46:48,0.840,2.0,0.99,0.015
02/09/2023,09:47:48,0.929,2.0,1.005,0.015
02/09/2023,09:48:48,0.888,2.0,1.02,0.015
02/09/2023,09:49:48,0.778,2.0,1.034,0.014
02/09/2023,09:50:48,0.898,2.0,1.048,0.014
02/09/2023,09:51:49,0.808,2.0,1.062,0.014
02/09/2023,09:52:48,0.832,2.0,1.075,0.013
02/09/2023,09:53:48,0.837,2.0,1.09,0.015
02/09/2023,09:54:49,0.829,2.0,1.103,0.013
02/09/2023,09:55:48,0.911,2.0,1.118,0.015
02/09/2023,09:56:48,0.926,2.0,1.133,0.015
02/09/2023,09:57:48,0.980,2.0,1.15,0.017
02/09/2023,09:58:48,0.907,2.0,1.166,0.016
02/09/2023,09:59:49,0.683,2.0,1.179,0.013
02/09/2023,10:00:48,0.773,2.0,1.19,0.011
02/09/2023,10:01:48,0.906,2.0,1.204,0.014
02/09/2023,10:02:49,1.023,2.0,1.219,0.015
02/09/2023,10:03:48,1.060,2.0,1.236,0.017
02/09/2023,10:04:48,1.020,2.0,1.254,0.018